Total_Precipitation_Accumulation
0.70 0.72 0.71 0.61 0.49 0.47 0.47 0.45 0.44 0.48 0.54 0.55 0.57 0.63 0.62 0.63 0.64 0.64 0.69 0.76 0.82 0.92 0.99 1.10 1.29 1.47 1.51 1.51 1.53 1.51 1.45 1.27 1.02 0.94 0.77 0.74 0.85 0.87 0.87 0.80 0.84 0.90 0.74
0.65 0.62 0.58 0.51 0.44 0.43 0.41 0.38 0.39 0.44 0.46 0.47 0.52 0.57 0.56 0.61 0.63 0.62 0.61 0.61 0.68 0.77 0.80 0.81 0.92 1.14 1.26 1.36 1.42 1.43 1.44 1.40 1.21 1.15 1.07 0.87 0.83 0.87 0.97 1.03 0.97 0.95 0.92
0.70 0.60 0.56 0.52 0.49 0.47 0.42 0.41 0.41 0.47 0.57 0.60 0.60 0.63 0.60 0.62 0.62 0.63 0.64 0.63 0.64 0.71 0.75 0.77 0.82 0.93 1.06 1.12 1.22 1.30 1.37 1.46 1.40 1.18 1.21 1.16 0.98 0.94 0.97 1.03 1.07 1.13 1.05
0.90 0.77 0.68 0.61 0.54 0.48 0.44 0.43 0.42 0.45 0.51 0.53 0.62 0.69 0.76 0.81 0.80 0.76 0.73 0.69 0.65 0.68 0.74 0.80 0.81 0.81 0.92 1.12 1.25 1.30 1.33 1.39 1.45 1.37 1.30 1.29 1.15 1.04 1.00 1.02 1.15 1.24 1.22
0.92 0.80 0.66 0.55 0.45 0.43 0.46 0.49 0.46 0.41 0.43 0.44 0.52 0.60 0.70 0.78 0.83 0.82 0.68 0.58 0.59 0.64 0.64 0.65 0.74 0.81 0.83 0.96 1.11 1.31 1.32 1.37 1.41 1.44 1.36 1.23 1.11 1.02 0.96 0.94 1.01 1.21 1.27
0.74 0.70 0.54 0.48 0.43 0.39 0.42 0.48 0.49 0.39 0.37 0.39 0.43 0.42 0.44 0.48 0.63 0.62 0.50 0.42 0.47 0.57 0.64 0.67 0.68 0.69 0.70 0.74 0.76 0.99 1.16 1.25 1.30 1.28 1.30 1.20 1.08 1.00 1.04 1.02 0.94 1.00 1.15
0.44 0.45 0.36 0.34 0.41 0.42 0.45 0.44 0.38 0.31 0.34 0.35 0.31 0.27 0.28 0.32 0.36 0.35 0.40 0.43 0.46 0.51 0.59 0.68 0.73 0.71 0.76 0.83 0.78 0.82 0.90 0.96 1.04 1.10 1.11 1.06 1.03 0.99 1.03 1.05 0.98 0.90 0.82
0.20 0.17 0.14 0.21 0.30 0.32 0.30 0.28 0.23 0.23 0.28 0.36 0.31 0.29 0.32 0.28 0.30 0.34 0.37 0.41 0.55 0.60 0.60 0.61 0.72 0.77 0.82 0.96 0.94 1.00 0.91 0.82 0.81 0.84 0.93 0.95 0.90 0.99 1.06 1.21 1.21 1.04 0.93
0.02 0.02 0.04 0.05 0.06 0.06 0.06 0.07 0.11 0.15 0.19 0.18 0.22 0.37 0.37 0.32 0.40 0.37 0.32 0.40 0.53 0.61 0.56 0.59 0.71 0.80 0.94 1.03 1.08 1.08 0.97 0.87 0.91 0.97 1.02 1.04 1.03 1.08 1.14 1.18 1.20 1.14 1.06
0.00 0.00 0.00 0.01 0.01 0.01 0.01 0.01 0.03 0.06 0.09 0.10 0.14 0.26 0.33 0.34 0.34 0.24 0.24 0.36 0.50 0.58 0.59 0.60 0.82 0.83 0.90 0.94 1.00 1.09 1.08 0.95 0.88 0.90 0.93 0.96 0.95 1.00 1.14 1.14 1.19 1.19 1.06
0.00 0.00 0.00 0.00 0.01 0.01 0.02 0.01 0.00 0.01 0.02 0.05 0.10 0.13 0.14 0.14 0.13 0.13 0.19 0.27 0.34 0.47 0.54 0.59 0.57 0.68 0.70 0.79 0.90 0.95 1.12 0.99 0.92 0.93 0.92 0.84 0.81 0.84 0.91 1.02 1.12 1.14 1.04
0.00 0.00 0.00 0.01 0.01 0.01 0.02 0.01 0.01 0.00 0.01 0.02 0.05 0.09 0.07 0.06 0.05 0.06 0.08 0.12 0.19 0.28 0.37 0.48 0.48 0.54 0.59 0.67 0.69 0.85 1.00 0.94 0.87 0.92 0.90 0.83 0.76 0.74 0.75 0.79 0.90 0.95 0.91
0.00 0.01 0.00 0.00 0.01 0.00 0.01 0.01 0.01 0.01 0.01 0.02 0.03 0.06 0.07 0.08 0.07 0.06 0.06 0.08 0.13 0.18 0.22 0.37 0.44 0.49 0.48 0.49 0.61 0.78 0.83 0.86 0.97 0.92 0.91 0.84 0.75 0.71 0.63 0.65 0.73 0.79 0.76
0.00 0.00 0.00 0.00 0.01 0.00 0.01 0.00 0.01 0.01 0.01 0.01 0.02 0.04 0.08 0.10 0.07 0.05 0.08 0.10 0.13 0.15 0.18 0.32 0.43 0.50 0.49 0.48 0.54 0.66 0.72 0.84 0.97 0.88 0.83 0.78 0.70 0.68 0.62 0.58 0.61 0.64 0.68
0.00 0.00 0.00 0.00 0.01 0.01 0.01 0.00 0.00 0.00 0.01 0.01 0.01 0.03 0.03 0.04 0.03 0.04 0.08 0.11 0.13 0.14 0.23 0.41 0.56 0.57 0.57 0.52 0.55 0.64 0.62 0.61 0.70 0.69 0.70 0.69 0.65 0.62 0.57 0.50 0.50 0.51 0.52
0.00 0.00 0.00 0.00 0.01 0.01 0.01 0.01 0.00 0.01 0.01 0.01 0.01 0.02 0.02 0.02 0.03 0.06 0.11 0.14 0.16 0.23 0.40 0.60 0.71 0.78 0.76 0.68 0.63 0.61 0.56 0.54 0.55 0.58 0.64 0.63 0.58 0.58 0.56 0.49 0.47 0.47 0.48
0.00 0.00 0.00 0.00 0.00 0.00 0.00 0.02 0.02 0.01 0.01 0.00 0.00 0.01 0.01 0.03 0.06 0.13 0.19 0.21 0.27 0.49 0.71 0.76 0.77 0.79 0.80 0.70 0.58 0.52 0.41 0.36 0.39 0.45 0.47 0.48 0.48 0.47 0.48 0.47 0.45 0.42 0.40
0.00 0.00 0.00 0.00 0.00 0.00 0.00 0.00 0.02 0.03 0.04 0.02 0.01 0.00 0.01 0.02 0.08 0.18 0.29 0.39 0.46 0.62 0.76 0.78 0.84 0.81 0.75 0.60 0.44 0.36 0.27 0.24 0.26 0.28 0.28 0.25 0.29 0.32 0.35 0.39 0.41 0.38 0.34
0.00 0.00 0.00 0.00 0.00 0.00 0.00 0.00 0.00 0.01 0.01 0.02 0.02 0.01 0.01 0.01 0.03 0.08 0.15 0.21 0.24 0.32 0.41 0.46 0.50 0.47 0.41 0.32 0.23 0.18 0.13 0.11 0.13 0.15 0.17 0.18 0.21 0.21 0.21 0.26 0.31 0.36 0.36
0.00 0.00 0.00 0.00 0.00 0.00 0.00 0.00 0.00 0.00 0.01 0.01 0.01 0.01 0.01 0.02 0.04 0.04 0.04 0.05 0.08 0.11 0.14 0.15 0.15 0.13 0.11 0.09 0.08 0.07 0.08 0.09 0.09 0.10 0.13 0.15 0.17 0.18 0.17 0.18 0.21 0.23 0.26
0.00 0.00 0.00 0.00 0.00 0.00 0.00 0.00 0.00 0.00 0.00 0.00 0.00 0.00 0.01 0.02 0.02 0.03 0.03 0.03 0.03 0.04 0.05 0.06 0.06 0.05 0.04 0.04 0.04 0.04 0.05 0.06 0.07 0.08 0.09 0.10 0.12 0.15 0.16 0.18 0.19 0.20 0.21
0.00 0.00 0.00 0.00 0.00 0.00 0.00 0.00 0.00 0.00 0.00 0.00 0.00 0.00 0.01 0.03 0.04 0.04 0.03 0.03 0.03 0.04 0.03 0.03 0.03 0.04 0.04 0.04 0.05 0.05 0.05 0.05 0.06 0.07 0.08 0.10 0.11 0.13 0.13 0.14 0.16 0.18 0.18
0.00 0.00 0.00 0.00 0.00 0.00 0.00 0.00 0.00 0.00 0.00 0.00 0.00 0.00 0.01 0.02 0.03 0.03 0.02 0.02 0.02 0.02 0.02 0.02 0.03 0.04 0.04 0.04 0.05 0.06 0.05 0.06 0.06 0.07 0.09 0.11 0.12 0.13 0.15 0.14 0.14 0.13 0.14
0.00 0.00 0.00 0.00 0.00 0.00 0.00 0.00 0.00 0.00 0.00 0.00 0.00 0.01 0.01 0.01 0.01 0.01 0.01 0.01 0.02 0.02 0.02 0.02 0.03 0.03 0.03 0.04 0.05 0.06 0.07 0.07 0.08 0.10 0.13 0.14 0.15 0.17 0.20 0.21 0.18 0.18 0.21
0.00 0.00 0.00 0.00 0.00 0.00 0.00 0.00 0.00 0.00 0.00 0.00 0.00 0.01 0.01 0.01 0.01 0.01 0.01 0.01 0.01 0.01 0.02 0.02 0.03 0.03 0.03 0.04 0.05 0.06 0.09 0.10 0.10 0.11 0.13 0.16 0.17 0.19 0.22 0.22 0.21 0.21 0.22
0.00 0.00 0.00 0.00 0.00 0.00 0.00 0.00 0.00 0.00 0.00 0.00 0.00 0.01 0.01 0.01 0.01 0.01 0.01 0.01 0.01 0.01 0.01 0.02 0.02 0.03 0.03 0.03 0.04 0.07 0.08 0.09 0.09 0.10 0.12 0.17 0.21 0.22 0.22 0.23 0.21 0.19 0.18